EW6866 Weather Reports


Display with metric or nautical units.
time (UTC)temp
F
wind
direction
speed
MPH
gust
MPH
rain 1hr
in
rain 24hr
in
rain mn
in
humidity
%
barometer
mb
20260508211504 68 270 1.0 3.0 0.00 0.00 0.00 59 1013.9
20260508210025 69 280 0.0 3.0 0.00 0.01 0.00 53 1013.9
20260508204505 69 276 0.0 2.0 0.00 0.01 0.00 55 1013.9
20260508203004 69 293 0.0 3.0 0.00 0.02 0.00 53 1014.1
20260508201504 70 265 0.0 4.0 0.00 0.03 0.00 52 1014.2
20260508200004 69 335 0.0 1.0 0.00 0.04 0.00 58 1014.4
20260508194526 68 282 0.0 5.0 0.00 0.04 0.00 59 1014.7
20260508193005 68 272 0.0 9.0 0.00 0.04 0.00 62 1014.9
20260508191504 68 286 1.0 3.0 0.00 0.04 0.00 59 1015.2
20260508190004 68 311 1.0 4.0 0.00 0.05 0.00 58 1015.3
20260508184504 68 30 0.0 3.0 0.00 0.06 0.00 61 1015.5
20260508183005 68 279 1.0 5.0 0.00 0.06 0.00 64 1015.5
20260508181505 67 268 1.0 6.0 0.00 0.06 0.00 60 1015.4
20260508180004 67 277 1.0 6.0 0.00 0.06 0.00 58 1015.6
20260508174505 68 273 1.0 3.0 0.00 0.06 0.00 63 1015.6
20260508173004 67 272 2.0 7.0 0.00 0.07 0.00 61 1015.8
20260508171505 68 272 1.0 6.0 0.00 0.09 0.00 63 1015.8
20260508170004 67 303 0.0 7.0 0.00 0.12 0.00 66 1016.0
20260508164504 67 51 0.0 1.0 0.00 0.17 0.00 62 1016.1
20260508163004 67 96 0.0 2.0 0.00 0.26 0.00 62 1016.3
20260508161504 68 102 0.0 1.0 0.00 0.42 0.00 62 1016.4
20260508160025 67 70 1.0 3.0 0.00 0.46 0.00 62 1016.5
20260508154525 66 108 0.0 2.0 0.00 0.49 0.00 65 1016.5
20260508153004 65 75 0.0 2.0 0.00 0.53 0.00 69 1016.5
20260508151504 64 65 1.0 5.0 0.00 0.53 0.00 69 1016.5
20260508150004 63 74 1.0 4.0 0.00 0.53 0.00 70 1016.3
20260508144504 63 70 1.0 2.0 0.00 0.53 0.00 71 1016.3
20260508143004 62 67 1.0 6.0 0.00 0.53 0.00 71 1016.4
20260508141504 61 64 1.0 4.0 0.00 0.53 0.00 73 1016.3
20260508140024 61 74 1.0 3.0 0.00 0.53 0.00 75 1016.1
20260508134504 60 84 1.0 3.0 0.00 0.53 0.00 79 1016.0
20260508133004 59 69 0.0 6.0 0.00 0.53 0.00 80 1015.9
20260508131504 58 90 0.0 2.0 0.00 0.53 0.00 84 1015.8
20260508130003 56 81 0.0 2.0 0.00 0.53 0.00 90 1015.7
20260508124503 55 103 0.0 4.0 0.00 0.53 0.00 96 1015.4
20260508123027 54 146 0.0 2.0 0.00 0.53 0.00 98 1015.4
20260508121525 53 115 0.0 3.0 0.00 0.54 0.00 98 1015.2
20260508120005 52 136 0.0 1.0 0.00 0.55 0.00 98 1015.1
20260508114503 50 115 0.0 1.0 0.00 0.55 0.00 98 1014.9
20260508113004 50 0 0.0 0.0 0.00 0.55 0.00 98 1014.7
20260508111504 49 0 0.0 0.0 0.00 0.55 0.00 98 1014.6
20260508110004 48 0 0.0 0.0 0.00 0.55 0.00 97 1014.3
20260508104503 48 0 0.0 0.0 0.00 0.55 0.00 97 1013.9
20260508103004 48 0 0.0 0.0 0.00 0.56 0.00 97 1013.9
20260508101504 48 0 0.0 0.0 0.00 0.56 0.00 97 1013.7
20260508100004 48 0 0.0 0.0 0.00 0.56 0.00 97 1013.6
20260508094503 48 0 0.0 0.0 0.00 0.56 0.00 97 1013.5
20260508093003 48 0 0.0 0.0 0.00 0.56 0.00 97 1013.2
20260508091504 48 0 0.0 0.0 0.00 0.56 0.00 97 1013.1
20260508090004 49 0 0.0 0.0 0.00 0.56 0.00 97 1013.1
20260508084503 49 0 0.0 0.0 0.00 0.56 0.00 97 1012.8
20260508083004 49 130 0.0 1.0 0.00 0.56 0.00 97 1012.7
20260508081504 49 0 0.0 0.0 0.00 0.56 0.00 97 1012.7
20260508080025 50 0 0.0 0.0 0.00 0.56 0.00 96 1012.6
20260508074505 50 0 0.0 0.0 0.00 0.57 0.00 96 1012.4
20260508073005 51 127 0.0 1.0 0.00 0.57 0.00 97 1012.4
20260508071505 51 117 0.0 1.0 0.00 0.58 0.00 97 1012.6
20260508070005 51 0 0.0 0.0 0.00 0.59 0.00 97 1012.4
20260508064506 51 0 0.0 0.0 0.00 0.62 0.00 96 1012.1
20260508063005 51 119 0.0 2.0 0.00 0.62 0.00 97 1012.1
20260508061505 50 143 0.0 1.0 0.00 0.62 0.00 96 1011.9
20260508060005 50 0 0.0 0.0 0.00 0.62 0.00 96 1011.8
20260508054505 50 0 0.0 0.0 0.00 0.62 0.00 96 1011.7
20260508053005 51 0 0.0 0.0 0.00 0.62 0.00 96 1011.6
20260508051505 51 0 0.0 0.0 0.00 0.62 0.00 96 1011.7
20260508050026 51 0 0.0 0.0 0.00 0.62 0.00 96 1011.5
20260508044504 51 0 0.0 0.0 0.00 0.62 0.00 96 1011.4
20260508043005 51 0 0.0 0.0 0.00 0.62 0.00 96 1011.4
20260508041505 51 0 0.0 0.0 0.00 0.62 0.00 96 1011.1
20260508040006 51 127 0.0 1.0 0.00 0.62 0.00 95 1011.0
20260508034505 52 0 0.0 0.0 0.00 0.62 0.62 95 1010.8
20260508033005 52 143 0.0 1.0 0.00 0.62 0.62 95 1010.6
20260508031506 52 0 0.0 0.0 0.00 0.62 0.62 95 1010.6
20260508030005 52 0 0.0 0.0 0.00 0.62 0.62 95 1010.7
20260508024505 52 0 0.0 0.0 0.00 0.62 0.62 95 1010.6
20260508023004 52 0 0.0 0.0 0.00 0.62 0.62 95 1010.7
20260508021526 52 0 0.0 0.0 0.00 0.62 0.62 95 1010.8
20260508020005 52 0 0.0 0.0 0.00 0.62 0.62 95 1010.2
20260508014526 52 117 0.0 1.0 0.00 0.62 0.62 95 1010.2
20260508013005 52 0 0.0 0.0 0.00 0.62 0.62 95 1010.2
20260508011504 52 91 0.0 1.0 0.00 0.62 0.62 95 1009.9
20260508010005 52 0 0.0 0.0 0.00 0.62 0.62 94 1010.0
20260508004526 52 0 0.0 0.0 0.00 0.62 0.62 94 1009.5
20260508003025 52 68 0.0 1.0 0.00 0.62 0.62 94 1009.3
20260508001505 52 75 0.0 1.0 0.00 0.62 0.62 94 1009.2
20260508000005 52 67 0.0 1.0 0.00 0.62 0.62 93 1008.9
20260507234504 52 76 0.0 1.0 0.00 0.62 0.62 94 1009.3
20260507233005 52 117 0.0 2.0 0.00 0.62 0.62 94 1009.4
20260507231526 52 96 0.0 1.0 0.00 0.62 0.62 94 1009.3
20260507230005 52 82 0.0 3.0 0.00 0.62 0.62 94 1009.2
20260507224525 52 69 0.0 3.0 0.00 0.62 0.62 96 1008.9
20260507223005 53 65 0.0 4.0 0.00 0.62 0.62 96 1008.7
20260507221505 52 74 0.0 3.0 0.00 0.62 0.62 96 1008.8
20260507220005 53 75 0.0 4.0 0.01 0.62 0.62 96 1008.4
20260507214504 53 72 0.0 3.0 0.01 0.62 0.62 96 1008.0
20260507213004 53 72 0.0 3.0 0.02 0.62 0.62 96 1007.9